Regional Weather Roundup
Issued by NWS Midland/Odessa, TX

Skip options and go directly to product.
Home | Oldest Version | Previous Version | Current Version | All | Text Only | Save Text | Print | Product List | Glossary On

Skip product version selection by date and time.   
905
ASUS44 KMAF 230810
RWRMAF
MIDLAND AREA WEATHER ROUNDUP
NATIONAL WEATHER SERVICE MIDLAND TX
300 AM CDT TUE SEP 23 2014

...IN SOUTHWEST TEXAS AND SOUTHEAST NEW MEXICO...

CITY           SKY/WX    TMP DP  RH WIND       PRES   REMARKS
ALPINE         MOCLDY    65  55  69 SW5       30.29F
ANDREWS        FAIR      66  64  94 SE5       30.19F
ARTESIA        NOT AVBL
BIG SPRING     MOCLDY    74  64  72 SE12      30.19S
CARLSBAD       PTCLDY    66  32  28 CALM      30.17F
DRYDEN           N/A     73  59  61 NE3       30.13S
FORT STOCKTON  CLEAR     64  57  78 S7        30.17F
GUAD PASS      CLOUDY    63  50  62 NE25        N/A
HOBBS          PTCLDY    64  64 100 SE7       30.21F
MARFA          CLOUDY    63  55  77 CALM      30.28F
MIDLAND AIRPK  NOT AVBL
MIDLAND INTL   PTCLDY    68  64  87 SE7       30.17F
ODESSA         PTCLDY    68  63  84 E7        30.18F
PECOS          PTCLDY    65  60  82 CALM      30.15F
PRESIDIO       FAIR      74  55  51 NE8       30.14F
SEMINOLE       MOCLDY    65  63  94 S3        30.20F
SNYDER         MOCLDY    68  61  79 SE6       30.18S
WINK           MOCLDY    68  61  78 E5        30.15F
$$
...OTHER STATIONS IN TEXAS...

CITY           SKY/WX    TMP DP  RH WIND       PRES   REMARKS
ABILENE        MOCLDY    70  53  54 SE8       30.17F
AMARILLO       MOCLDY    63  57  81 S9        30.21F
AUSTIN         PTCLDY    69  65  86 NE5       30.11S
BROWNSVILLE    CLEAR     74  72  93 NW3       30.00F
CORPUS CHRISTI PTCLDY    76  73  91 NW5       30.03F
DALLAS FTW     PTCLDY    66  52  60 SE9       30.16S
DEL RIO        MOCLDY    79  64  60 E5        30.07F
EL PASO        MOCLDY    69  64  84 NE3       30.19S
HOUSTON INT    MOCLDY    68  59  73 NE7       30.10R
LUBBOCK        MOCLDY    63  59  87 E6        30.21S
SAN ANGELO     CLOUDY    71  67  87 CALM      30.15F
SAN ANTONIO    PTCLDY    77  68  73 NE6       30.11S
WACO           CLEAR     64  54  69 NE6       30.14F
WICHITA FALLS  NOT AVBL
$$
...OTHER LOCATIONS IN NEW MEXICO...

CITY           SKY/WX    TMP DP  RH WIND       PRES   REMARKS
ALAMAGORDO     CLOUDY    66  66 100 CALM      30.24S
ALBUQUERQUE    PTCLDY    63  60  90 SE9       30.26S
CANNON AFB     MOCLDY    62  61  96 CALM      30.25S FOG
CLOVIS           N/A     63  61  94 S6        30.27F
HOLLOMAN AFB   MOCLDY    66  66 100 CALM      30.22S
ROSWELL        CLOUDY    67  65  93 E5        30.20F FOG
RUIDOSO        FOG       57  57 100 S5        30.37F VSB<1/4
SANTA FE       CLOUDY    61  57  87 CALM      30.30F
TRUTH OR CONSE RAIN      62  60  93 N3        30.25F FOG
TUCUMCARI      PTCLDY    63  58  83 SE5       30.21F
$$

USA.gov is the U.S. government's official web portal to all federal, state and local government web resources and services.